When you browse on this site, cookies collect data to enhance your experience and personalize the content and advertising you see.
Visit our Privacy Policy to learn more. By continuing to use the site, you agree to this use of cookies and data.
  • In Spain
  • List of Countries
  • For 7 days
  • Water Temperature
  • Satellite Maps
  • Weather Map
  • Weather Widgets
  • user-avatar
    Login

    Hourly Weather Bucenino

    Today, 19 July, Friday

    Time Temperature Precipitation Wind Pressure Humidity
    00:00 +13°C° 0.8 mm 4 mps 733 mmHg 97%
    01:00 +13°C° 0.8 mm 5 mps 734 mmHg 97%
    02:00 +13°C° 0.8 mm 5 mps 734 mmHg 97%
    03:00 +13°C° 0.5 mm 5 mps 734 mmHg 97%
    04:00 +13°C° 0.5 mm 5 mps 734 mmHg 97%
    05:00 +13°C° 0.5 mm 5 mps 734 mmHg 97%
    06:00 +14°C° 0.2 mm 5 mps 735 mmHg 96%
    07:00 +14°C° 0.2 mm 5 mps 735 mmHg 96%
    08:00 +14°C° 0.2 mm 5 mps 736 mmHg 95%
    09:00 +15°C° 0.3 mm 5 mps 736 mmHg 94%
    10:00 +15°C° 0.3 mm 6 mps 736 mmHg 92%
    11:00 +16°C° 0.3 mm 6 mps 737 mmHg 91%
    12:00 +16°C° 0.1 mm 6 mps 737 mmHg 88%
    13:00 +16°C° 0.1 mm 6 mps 737 mmHg 86%
    14:00 +16°C° 0.1 mm 6 mps 738 mmHg 83%
    15:00 +17°C° 0 mm 6 mps 738 mmHg 81%
    16:00 +17°C° 0 mm 6 mps 738 mmHg 78%
    17:00 +17°C° 0 mm 6 mps 738 mmHg 76%
    18:00 +16°C° 0 mm 5 mps 739 mmHg 79%
    19:00 +15°C° 0 mm 4 mps 739 mmHg 82%
    20:00 +16°C° 0 mm 3 mps 739 mmHg 85%
    21:00 +14°C° 0 mm 3 mps 739 mmHg 86%
    22:00 +13°C° 0 mm 3 mps 740 mmHg 88%
    23:00 +13°C° 0 mm 4 mps 740 mmHg 90%

    Tomorrow, 20 July, Saturday

    Time Temperature Precipitation Wind Pressure Humidity
    00:00 +12°C° 0 mm 4 mps 740 mmHg 91%
    01:00 +12°C° 0 mm 3 mps 740 mmHg 93%
    02:00 +11°C° 0 mm 3 mps 740 mmHg 94%
    03:00 +11°C° 0 mm 3 mps 740 mmHg 94%
    04:00 +11°C° 0 mm 3 mps 741 mmHg 94%
    05:00 +11°C° 0 mm 3 mps 741 mmHg 94%
    06:00 +13°C° 0 mm 3 mps 741 mmHg 89%
    07:00 +16°C° 0 mm 3 mps 742 mmHg 85%
    08:00 +17°C° 0 mm 3 mps 742 mmHg 80%
    09:00 +19°C° 0 mm 4 mps 742 mmHg 75%
    10:00 +20°C° 0 mm 4 mps 743 mmHg 70%
    11:00 +21°C° 0 mm 4 mps 743 mmHg 64%
    12:00 +22°C° 0 mm 5 mps 743 mmHg 63%
    13:00 +22°C° 0 mm 5 mps 743 mmHg 62%
    14:00 +22°C° 0 mm 5 mps 743 mmHg 61%
    15:00 +22°C° 0 mm 4 mps 743 mmHg 63%
    16:00 +22°C° 0 mm 4 mps 743 mmHg 66%
    17:00 +21°C° 0 mm 4 mps 744 mmHg 68%
    18:00 +20°C° 0 mm 3 mps 744 mmHg 73%
    19:00 +18°C° 0 mm 3 mps 744 mmHg 78%
    20:00 +17°C° 0 mm 3 mps 744 mmHg 82%
    21:00 +16°C° 0 mm 3 mps 744 mmHg 84%
    22:00 +14°C° 0 mm 3 mps 744 mmHg 86%
    23:00 +13°C° 0 mm 3 mps 744 mmHg 87%

    Day after tomorrow, 21 July, Sunday

    Time Temperature Precipitation Wind Pressure Humidity
    00:00 +14°C° 0 mm 2 mps 744 mmHg 89%
    01:00 +14°C° 0 mm 2 mps 745 mmHg 91%
    02:00 +13°C° 0 mm 2 mps 745 mmHg 93%
    03:00 +13°C° 0 mm 2 mps 745 mmHg 93%
    04:00 +13°C° 0 mm 2 mps 745 mmHg 94%
    05:00 +13°C° 0 mm 1 mps 745 mmHg 94%
    06:00 +15°C° 0 mm 1 mps 745 mmHg 88%
    07:00 +18°C° 0 mm 1 mps 745 mmHg 83%
    08:00 +20°C° 0 mm 1 mps 745 mmHg 78%
    09:00 +21°C° 0 mm 1 mps 745 mmHg 73%
    10:00 +22°C° 0 mm 1 mps 746 mmHg 68%
    11:00 +23°C° 0 mm 2 mps 746 mmHg 63%
    12:00 +24°C° 0 mm 2 mps 745 mmHg 62%
    13:00 +24°C° 0 mm 2 mps 745 mmHg 60%
    14:00 +25°C° 0 mm 2 mps 745 mmHg 59%
    15:00 +25°C° 0 mm 2 mps 745 mmHg 62%
    16:00 +24°C° 0 mm 2 mps 745 mmHg 64%
    17:00 +24°C° 0 mm 2 mps 745 mmHg 67%
    18:00 +23°C° 0 mm 1 mps 745 mmHg 73%
    19:00 +21°C° 0 mm 1 mps 745 mmHg 78%
    20:00 +17°C° 0 mm 0 mps 744 mmHg 84%
    21:00 +16°C° 0 mm 0 mps 744 mmHg 85%
    22:00 +16°C° 0 mm 0 mps 744 mmHg 86%
    23:00 +15°C° 0 mm 0 mps 745 mmHg 86%

    22 July, Monday

    Time Temperature Precipitation Wind Pressure Humidity
    00:00 +16°C° 0 mm 1 mps 744 mmHg 88%
    01:00 +15°C° 0 mm 1 mps 744 mmHg 89%
    02:00 +15°C° 0 mm 1 mps 744 mmHg 90%
    03:00 +15°C° 0 mm 1 mps 744 mmHg 90%
    04:00 +15°C° 0 mm 2 mps 743 mmHg 90%
    05:00 +15°C° 0 mm 2 mps 743 mmHg 90%
    06:00 +17°C° 0 mm 2 mps 743 mmHg 88%
    07:00 +18°C° 0 mm 2 mps 743 mmHg 85%
    08:00 +20°C° 0 mm 2 mps 743 mmHg 82%
    09:00 +20°C° 0.7 mm 3 mps 743 mmHg 83%
    10:00 +20°C° 0.7 mm 3 mps 742 mmHg 83%
    11:00 +20°C° 0.7 mm 3 mps 742 mmHg 84%
    12:00 +20°C° 0.3 mm 2 mps 742 mmHg 87%
    13:00 +19°C° 0.3 mm 2 mps 742 mmHg 89%
    14:00 +19°C° 0.3 mm 1 mps 742 mmHg 92%
    15:00 +19°C° 1.1 mm 1 mps 741 mmHg 93%
    16:00 +18°C° 1.1 mm 2 mps 741 mmHg 95%
    17:00 +17°C° 1.1 mm 2 mps 741 mmHg 96%
    18:00 +17°C° 0.1 mm 2 mps 741 mmHg 96%
    19:00 +17°C° 0.1 mm 2 mps 741 mmHg 97%
    20:00 +17°C° 0.1 mm 2 mps 741 mmHg 97%
    21:00 +17°C° 0.1 mm 2 mps 741 mmHg 97%
    22:00 +16°C° 0.1 mm 2 mps 740 mmHg 97%
    23:00 +16°C° 0.1 mm 2 mps 740 mmHg 97%

    23 July, Tuesday

    Time Temperature Precipitation Wind Pressure Humidity
    00:00 +16°C° 0.2 mm 2 mps 740 mmHg 97%
    01:00 +16°C° 0.2 mm 2 mps 740 mmHg 98%
    02:00 +16°C° 0.2 mm 2 mps 740 mmHg 98%
    03:00 +16°C° 0.2 mm 2 mps 740 mmHg 98%
    04:00 +16°C° 0.2 mm 3 mps 740 mmHg 98%
    05:00 +16°C° 0.2 mm 3 mps 740 mmHg 98%
    06:00 +16°C° 0.2 mm 3 mps 740 mmHg 97%
    07:00 +16°C° 0.2 mm 3 mps 740 mmHg 97%
    08:00 +15°C° 0.2 mm 4 mps 740 mmHg 96%
    09:00 +15°C° 0.1 mm 4 mps 740 mmHg 94%
    10:00 +17°C° 0.1 mm 3 mps 740 mmHg 93%
    11:00 +17°C° 0.1 mm 3 mps 741 mmHg 91%
    12:00 +18°C° 0 mm 3 mps 741 mmHg 87%
    13:00 +18°C° 0 mm 3 mps 741 mmHg 82%
    14:00 +19°C° 0 mm 2 mps 741 mmHg 78%
    15:00 +20°C° 0.1 mm 2 mps 741 mmHg 77%
    16:00 +21°C° 0.1 mm 2 mps 741 mmHg 76%
    17:00 +21°C° 0.1 mm 2 mps 741 mmHg 75%
    18:00 +20°C° 0.1 mm 2 mps 741 mmHg 78%
    19:00 +19°C° 0.1 mm 1 mps 741 mmHg 81%
    20:00 +18°C° 0.1 mm 1 mps 741 mmHg 84%
    21:00 +16°C° 0 mm 2 mps 741 mmHg 86%
    22:00 +16°C° 0 mm 2 mps 741 mmHg 87%
    23:00 +15°C° 0 mm 2 mps 741 mmHg 89%

    24 July, Wednesday

    Time Temperature Precipitation Wind Pressure Humidity
    00:00 +14°C° 0 mm 2 mps 741 mmHg 90%
    01:00 +14°C° 0 mm 2 mps 741 mmHg 91%
    02:00 +13°C° 0 mm 2 mps 741 mmHg 92%
    03:00 +12°C° 0 mm 3 mps 741 mmHg 92%
    04:00 +12°C° 0 mm 3 mps 741 mmHg 92%
    05:00 +11°C° 0 mm 3 mps 741 mmHg 92%
    06:00 +13°C° 0 mm 3 mps 741 mmHg 89%
    07:00 +14°C° 0 mm 3 mps 741 mmHg 85%
    08:00 +15°C° 0 mm 4 mps 741 mmHg 81%
    09:00 +17°C° 0 mm 4 mps 741 mmHg 77%
    10:00 +18°C° 0 mm 4 mps 741 mmHg 73%
    11:00 +20°C° 0 mm 4 mps 741 mmHg 69%
    12:00 +20°C° 0.2 mm 4 mps 741 mmHg 69%
    13:00 +21°C° 0.2 mm 4 mps 741 mmHg 69%
    14:00 +21°C° 0.2 mm 4 mps 741 mmHg 69%
    15:00 +21°C° 0.6 mm 4 mps 741 mmHg 73%
    16:00 +20°C° 0.6 mm 3 mps 741 mmHg 77%
    17:00 +20°C° 0.6 mm 3 mps 741 mmHg 81%
    18:00 +19°C° 0.2 mm 3 mps 741 mmHg 84%
    19:00 +18°C° 0.2 mm 3 mps 740 mmHg 88%
    20:00 +17°C° 0.2 mm 3 mps 740 mmHg 91%
    21:00 +16°C° 0.1 mm 3 mps 740 mmHg 92%
    22:00 +16°C° 0.1 mm 3 mps 740 mmHg 92%
    23:00 +16°C° 0.1 mm 3 mps 740 mmHg 93%
    Show more